Find Starlink 30420

NORAD ID: 57846 Int'l Des: 2023-141 Owner: SPXS Country: US Constellation: starlink decayed
LEOCIRCULAR

Re-entered — 31. Dez. 2024

3D-Globus wird geladen...

About Starlink 30420

Starlink 30420 (NORAD 57846) is a starlink constellation satellite (v2 mini) launched Sep 12, 2023 by SPXS of US. It re-entered the atmosphere on Dec 31, 2024. with a mass of 730.00 kg.

Über Starlink 30420

Beschreibung wird geladen...

Höhenverlauf

Loading altitude history...

Zweizeiliger Elementsatz

1 57846U 23141G 24366.37079123 .36557156 12305-4 49776-2 0 9992
2 57846 53.1143 120.6350 0006992 332.6458 95.8516 16.34427977 74200
Epoch: 31. Dez. 2024 • Age: 12940 hours

Aktueller Status

Position data unavailable
Startdatum 12. Sept. 2023
Alter 2.7 years
Verglühungsdatum 31. Dez. 2024
Typ internet

Technische Details

Klassifizierung Payload
Masse 730.00 kg
Trockenmasse 700.00 kg
Gesamtmasse 730.00 kg
Länge 0.30 m
Durchmesser 4.10 m
Spannweite 29.00 m
Form Box + pan
Hersteller SPXS
Bus-Typ Starlink V2M
Phasenstatus Unknown Transfer Status
Besitzer/Staat SPXS/US

Most Searched